Temp
3 3 4 4 5 5 5 5 5 5 5 5 4 3 3 3 3 3 3 3 2 2 2 1 1 1 1 1 1 0 1 0 1 1 1 1 1 0 0 1 1 1 2
2 3 3 4 4 4 5 5 5 5 5 4 4 3 2 2 2 2 2 2 2 2 2 1 1 1 1 1 0 0 0 0 -0 -0 -0 -2 -2 -1 -0 -0 -0 -0 1
1 2 2 3 3 3 4 4 4 4 4 4 3 3 2 2 2 2 2 2 2 2 1 1 1 1 0 0 -0 -0 -1 -1 -1 -1 -1 -1 -1 -1 -1 -1 -1 -1 -1
1 1 2 2 2 2 2 2 3 3 3 2 2 1 1 1 1 1 1 1 1 1 1 1 0 0 0 -0 -1 -1 -1 -1 -1 -1 -1 -2 -1 -0 -1 -1 -1 -1 -2
-0 -0 0 0 0 -0 -0 0 1 1 2 1 -1 1 -1 -1 0 0 0 0 0 0 0 0 0 0 -0 -0 -0 -0 -1 -1 -1 -1 -1 -1 -1 -1 -1 -1 -2 -2 -2
-2 -1 -1 -2 -2 -1 -2 -2 -2 -2 -1 -1 -2 -1 -3 -1 -1 -1 -1 -1 -1 -0 -0 0 0 0 -0 -0 -1 -1 -2 -1 -1 -1 -1 -1 -1 -1 -2 -2 -3 -2 -2
-5 -3 -2 -3 -3 -3 -3 -3 -3 -4 -4 -3 -2 -2 -2 -1 -2 -1 -1 -1 -1 -0 -0 -0 -0 0 0 0 0 -1 -3 -2 -1 -1 -1 -1 -1 -2 -1 -2 -2 -3 -3
-6 -5 -4 -4 -3 -3 -4 -3 -4 -3 -3 -4 -3 -3 -3 -2 -1 -1 -1 -1 -0 -0 -0 -0 0 0 1 1 -1 -2 -1 -1 -1 -2 -1 -2 -1 -1 -1 -2 -2 -3 -3
-6 -6 -6 -6 -5 -5 -5 -4 -3 -4 -4 -4 -4 -4 -3 -3 -2 -1 -1 -2 -1 -0 0 0 -0 -0 -0 -1 -1 -3 -2 -3 -3 -3 -2 -2 -2 -3 -3 -3 -3 -3 -3
-7 -7 -6 -5 -5 -5 -5 -5 -4 -4 -4 -3 -4 -4 -3 -3 -4 -3 -4 -3 -2 -1 -0 -0 -1 -1 -2 -3 -3 -2 -2 -2 -2 -2 -2 -2 -3 -3 -3 -3 -3 -4 -4
-8 -7 -7 -6 -5 -6 -5 -5 -5 -5 -4 -4 -4 -4 -3 -3 -4 -4 -2 -3 -3 -2 -1 -1 -2 -3 -3 -4 -4 -3 -2 -2 -2 -2 -2 -3 -3 -3 -3 -4 -4 -4 -4
-9 -8 -7 -7 -6 -6 -6 -6 -5 -4 -4 -4 -4 -3 -4 -3 -3 -3 -3 -3 -3 -3 -2 -2 -3 -3 -3 -3 -3 -4 -2 -3 -3 -3 -2 -2 -2 -2 -3 -3 -4 -4 -4
-10 -9 -8 -7 -7 -6 -6 -7 -6 -5 -5 -5 -4 -4 -4 -3 -4 -3 -3 -3 -3 -3 -3 -3 -3 -3 -3 -3 -3 -3 -3 -2 -3 -2 -2 -2 -2 -3 -3 -3 -3 -3 -4
-11 -10 -9 -8 -8 -7 -6 -6 -6 -6 -5 -5 -4 -4 -4 -4 -3 -3 -3 -3 -3 -3 -3 -3 -3 -3 -3 -3 -3 -3 -2 -2 -3 -2 -2 -2 -2 -2 -2 -3 -3 -3 -4
-11 -11 -10 -9 -8 -8 -7 -6 -6 -6 -6 -5 -5 -5 -4 -4 -4 -4 -4 -3 -4 -3 -3 -4 -3 -3 -3 -3 -3 -3 -3 -3 -4 -3 -2 -2 -3 -3 -2 -3 -3 -3 -3
-12 -12 -11 -10 -9 -9 -8 -8 -6 -7 -7 -7 -7 -6 -7 -5 -5 -4 -4 -4 -4 -3 -3 -3 -3 -3 -4 -3 -3 -4 -3 -3 -3 -3 -3 -3 -3 -3 -3 -3 -3 -3 -3
-13 -12 -12 -11 -10 -10 -9 -8 -8 -7 -7 -7 -7 -7 -6 -6 -6 -5 -4 -3 -3 -5 -4 -3 -3 -3 -3 -4 -3 -4 -4 -4 -4 -4 -4 -3 -3 -3 -3 -3 -3 -3 -3
-14 -13 -12 -12 -11 -10 -10 -9 -8 -8 -8 -7 -7 -7 -6 -6 -6 -5 -4 -4 -5 -5 -5 -4 -4 -4 -4 -3 -3 -3 -3 -4 -4 -4 -3 -3 -3 -3 -3 -4 -3 -3 -3
-15 -15 -14 -13 -11 -11 -11 -10 -9 -9 -8 -8 -8 -7 -6 -6 -6 -6 -6 -5 -5 -5 -5 -4 -4 -4 -4 -4 -4 -3 -4 -4 -4 -4 -3 -3 -4 -4 -4 -4 -4 -4 -4
-15 -15 -14 -14 -13 -12 -11 -11 -11 -10 -9 -8 -8 -7 -7 -7 -6 -6 -6 -5 -5 -5 -5 -4 -4 -4 -4 -3 -4 -4 -3 -4 -3 -4 -4 -4 -3 -4 -4 -4 -4 -4 -4
-16 -15 -15 -15 -14 -13 -13 -12 -11 -10 -10 -9 -9 -8 -7 -7 -7 -7 -6 -6 -5 -5 -4 -5 -5 -4 -5 -4 -4 -4 -4 -3 -4 -4 -4 -4 -4 -4 -5 -5 -5 -4 -5
-17 -17 -16 -15 -15 -15 -14 -13 -13 -12 -11 -10 -10 -9 -8 -8 -7 -8 -7 -6 -6 -6 -5 -5 -5 -5 -4 -4 -3 -4 -3 -4 -4 -4 -4 -4 -5 -4 -5 -5 -5 -5 -4
-18 -18 -17 -16 -16 -16 -15 -15 -14 -14 -13 -12 -11 -10 -10 -10 -8 -7 -7 -6 -6 -6 -5 -5 -5 -5 -5 -5 -5 -5 -4 -4 -4 -5 -5 -5 -4 -4 -5 -5 -5 -5 -5
-19 -18 -18 -18 -18 -17 -16 -16 -15 -15 -14 -13 -12 -12 -11 -11 -10 -9 -8 -8 -7 -7 -7 -7 -6 -5 -5 -5 -5 -5 -5 -6 -5 -5 -5 -5 -5 -5 -5 -5 -5 -5 -6
-20 -20 -19 -19 -19 -18 -18 -17 -17 -16 -16 -15 -14 -13 -12 -12 -11 -10 -10 -10 -9 -8 -8 -8 -7 -7 -6 -6 -6 -7 -6 -6 -6 -6 -6 -6 -5 -5 -6 -6 -6 -6 -7
-21 -21 -20 -20 -20 -19 -19 -18 -18 -18 -17 -17 -16 -15 -14 -13 -12 -12 -11 -10 -9 -8 -8 -8 -8 -7 -7 -7 -7 -7 -7 -7 -7 -7 -6 -7 -7 -7 -7 -7 -7 -7 -7
Height
3075 3079 3083 3086 3090 3094 3097 3100 3103 3106 3109 3112 3115 3118 3120 3123 3126 3128 3130 3132 3135 3137 3139 3141 3143 3145 3146 3148 3148 3150 3151 3152 3152 3156 3157 3158 3160 3161 3161 3163 3164 3165 3165
3066 3070 3074 3077 3080 3083 3086 3090 3092 3095 3098 3101 3104 3106 3110 3114 3117 3119 3122 3124 3127 3129 3132 3133 3136 3137 3138 3140 3142 3143 3145 3147 3147 3149 3151 3152 3153 3154 3156 3157 3157 3158 3159
3058 3061 3064 3067 3070 3073 3076 3079 3082 3085 3087 3090 3092 3095 3100 3105 3108 3111 3113 3116 3119 3121 3123 3125 3128 3129 3131 3133 3135 3136 3138 3140 3140 3141 3144 3146 3147 3148 3149 3151 3152 3152 3152
3049 3052 3055 3058 3061 3063 3066 3069 3072 3074 3078 3080 3083 3087 3090 3095 3098 3102 3105 3108 3110 3112 3115 3116 3119 3121 3123 3126 3127 3129 3131 3131 3132 3133 3134 3137 3140 3141 3142 3144 3145 3146 3146
3041 3044 3047 3050 3053 3055 3057 3059 3063 3066 3069 3072 3075 3077 3082 3086 3089 3094 3096 3099 3101 3103 3106 3108 3110 3113 3115 3117 3117 3119 3121 3122 3123 3124 3125 3127 3131 3132 3134 3138 3137 3139 3139
3034 3037 3040 3043 3046 3048 3051 3054 3056 3058 3061 3064 3067 3071 3074 3077 3081 3086 3088 3090 3092 3094 3096 3099 3102 3104 3106 3108 3108 3109 3111 3111 3113 3115 3117 3119 3122 3124 3126 3128 3130 3131 3133
3026 3028 3032 3035 3037 3040 3044 3047 3049 3052 3054 3058 3060 3063 3066 3069 3073 3077 3079 3080 3082 3084 3087 3090 3092 3095 3096 3097 3098 3099 3100 3102 3104 3107 3107 3109 3112 3117 3120 3119 3121 3122 3125
3018 3020 3022 3025 3028 3031 3035 3039 3042 3044 3048 3051 3053 3056 3058 3061 3065 3068 3070 3070 3072 3075 3078 3081 3082 3084 3086 3086 3087 3089 3091 3093 3096 3098 3101 3104 3105 3108 3109 3111 3112 3114 3116
3010 3013 3015 3018 3021 3022 3026 3030 3032 3036 3039 3042 3045 3048 3050 3053 3055 3057 3058 3060 3063 3067 3070 3071 3072 3073 3077 3077 3078 3079 3081 3084 3087 3090 3093 3094 3097 3099 3101 3103 3104 3106 3107
3002 3005 3007 3010 3013 3016 3018 3022 3025 3026 3031 3033 3036 3039 3043 3046 3048 3050 3051 3052 3055 3059 3061 3063 3064 3066 3068 3069 3069 3072 3073 3079 3080 3083 3085 3087 3090 3092 3093 3095 3097 3098 3100
2993 2996 2999 3002 3005 3007 3011 3013 3016 3018 3021 3024 3027 3030 3035 3037 3040 3043 3044 3046 3048 3050 3051 3054 3056 3059 3060 3061 3062 3063 3067 3072 3072 3074 3077 3080 3082 3085 3087 3088 3089 3092 3093
2985 2988 2991 2993 2995 2998 3002 3005 3008 3011 3012 3014 3017 3022 3025 3029 3031 3034 3037 3039 3041 3042 3045 3046 3049 3051 3052 3053 3055 3057 3060 3062 3063 3065 3069 3073 3076 3079 3081 3083 3084 3086 3087
2977 2979 2983 2985 2987 2989 2992 2995 2998 3003 3005 3008 3009 3011 3016 3018 3022 3026 3027 3029 3031 3034 3036 3038 3040 3041 3043 3044 3046 3049 3052 3053 3055 3058 3063 3066 3069 3071 3073 3075 3077 3079 3081
2969 2971 2974 2977 2979 2980 2983 2986 2989 2993 2996 2998 3000 3002 3006 3009 3012 3014 3017 3019 3023 3024 3027 3029 3032 3033 3034 3036 3038 3040 3043 3046 3049 3052 3056 3058 3060 3062 3065 3068 3070 3072 3074
2961 2963 2965 2967 2969 2971 2974 2977 2980 2983 2986 2988 2990 2994 2997 2999 3003 3004 3007 3009 3013 3016 3017 3018 3021 3022 3025 3027 3029 3032 3035 3037 3039 3044 3048 3050 3052 3054 3057 3060 3063 3065 3067
2954 2956 2956 2958 2960 2962 2964 2967 2970 2973 2975 2978 2980 2983 2986 2990 2993 2995 2998 3000 3003 3007 3007 3009 3012 3014 3016 3019 3022 3024 3026 3029 3032 3036 3039 3042 3044 3046 3050 3052 3055 3058 3060
2948 2948 2948 2949 2951 2953 2955 2958 2962 2962 2965 2968 2972 2974 2977 2981 2984 2986 2988 2990 2993 2996 2996 3000 3003 3005 3008 3010 3012 3014 3016 3018 3022 3024 3028 3032 3035 3037 3041 3044 3046 3050 3053
2941 2940 2941 2941 2942 2944 2945 2947 2950 2954 2955 2957 2960 2963 2966 2970 2974 2976 2978 2979 2983 2986 2988 2990 2992 2995 2998 3000 3003 3003 3007 3008 3011 3014 3018 3022 3026 3029 3032 3035 3038 3041 3044
2934 2935 2935 2933 2933 2935 2937 2937 2940 2942 2946 2949 2950 2953 2955 2960 2963 2967 2969 2970 2972 2976 2979 2980 2981 2984 2986 2989 2991 2993 2996 2999 3002 3005 3009 3013 3016 3020 3023 3026 3029 3032 3035
2928 2927 2924 2925 2925 2926 2927 2929 2930 2931 2934 2937 2940 2942 2945 2948 2952 2956 2959 2961 2962 2965 2968 2970 2971 2973 2975 2977 2980 2982 2986 2987 2991 2993 2998 3002 3006 3009 3013 3017 3021 3024 3029
2919 2916 2917 2918 2917 2918 2920 2919 2920 2921 2924 2926 2928 2931 2933 2938 2941 2944 2948 2951 2953 2955 2957 2959 2961 2963 2965 2965 2967 2969 2973 2975 2979 2983 2986 2992 2995 3000 3005 3009 3013 3016 3022
2911 2911 2910 2910 2909 2910 2910 2911 2910 2911 2915 2917 2918 2920 2922 2925 2930 2933 2936 2939 2942 2945 2947 2950 2952 2954 2955 2956 2957 2957 2961 2965 2969 2972 2977 2981 2986 2992 2998 3003 3006 3010 3013
2903 2903 2902 2901 2902 2903 2903 2903 2903 2903 2905 2906 2908 2909 2911 2914 2918 2921 2924 2928 2931 2934 2937 2939 2943 2946 2947 2948 2949 2950 2952 2954 2960 2966 2970 2974 2980 2986 2991 2995 2999 3003 3007
2893 2894 2894 2895 2895 2896 2896 2896 2896 2896 2896 2896 2897 2899 2902 2904 2907 2909 2913 2917 2920 2923 2926 2929 2933 2937 2940 2942 2944 2945 2948 2951 2955 2960 2964 2969 2974 2978 2983 2988 2992 2995 2999
2889 2888 2887 2887 2887 2887 2887 2887 2888 2889 2889 2887 2888 2890 2892 2896 2897 2899 2903 2906 2910 2914 2917 2920 2924 2927 2931 2934 2937 2941 2943 2946 2949 2952 2957 2962 2966 2970 2975 2980 2984 2987 2991
2882 2881 2881 2881 2880 2880 2879 2880 2881 2881 2880 2880 2881 2881 2883 2885 2887 2890 2893 2897 2901 2904 2908 2912 2914 2917 2921 2925 2929 2933 2936 2939 2942 2946 2951 2956 2960 2965 2968 2972 2976 2980 2984
Wind_Speed
42 43 44 45 44 44 43 43 44 44 44 45 45 44 45 43 40 39 38 36 35 34 33 33 33 31 30 29 30 29 29 28 28 22 22 21 22 22 25 26 27 26 27
41 43 44 46 48 49 49 49 49 49 48 47 46 47 47 44 41 40 38 37 35 34 34 34 32 31 31 29 29 29 29 28 29 26 25 26 25 22 22 21 23 24 25
36 36 37 39 40 42 43 44 45 46 45 44 42 45 46 44 42 40 39 38 36 35 34 34 31 32 31 31 30 31 32 32 33 34 31 30 31 31 30 23 22 24 25
35 36 35 36 38 41 41 42 42 41 40 39 39 38 39 44 43 40 39 38 37 36 35 35 33 33 33 33 34 35 36 39 40 39 39 37 36 37 35 29 25 25 27
34 33 32 33 32 31 29 33 34 35 36 37 35 37 39 37 41 40 39 38 38 37 37 36 35 34 34 35 37 38 39 42 44 43 40 37 40 39 31 36 32 28 30
32 32 31 30 29 30 29 27 30 31 34 36 37 38 35 41 37 39 39 40 39 39 39 37 37 37 38 38 38 37 36 31 34 36 39 38 42 33 31 27 27 30 30
31 31 31 31 31 30 28 31 27 32 36 28 29 38 43 44 41 41 41 42 42 41 38 38 39 40 41 43 42 34 37 34 37 37 35 37 32 33 30 28 31 34 29
32 31 30 30 33 36 37 32 32 34 34 39 30 37 38 41 41 41 43 44 43 41 38 38 40 39 38 37 36 38 43 41 40 34 39 37 34 29 28 29 33 34 37
32 31 31 30 29 29 37 45 35 39 37 40 37 36 33 35 35 36 37 35 34 34 34 34 36 35 31 32 33 31 28 30 32 31 29 31 31 27 32 38 37 36 40
32 32 31 34 36 31 25 41 47 40 31 38 35 35 28 35 34 28 32 31 32 31 31 31 30 32 32 31 35 35 39 31 30 33 35 29 31 32 31 30 32 35 33
29 30 32 32 32 32 35 38 36 35 36 39 36 31 36 27 29 30 32 33 34 31 29 30 28 24 27 29 29 34 28 33 37 34 34 31 32 29 26 27 25 25 24
29 28 29 31 32 31 31 35 35 35 32 28 40 41 37 36 38 34 36 35 34 31 27 25 25 27 31 33 32 27 27 33 34 36 34 31 31 30 31 30 27 27 29
28 28 31 31 30 30 30 31 37 40 35 30 29 36 41 40 32 37 41 36 35 33 32 28 26 27 30 32 36 32 31 32 32 33 31 30 30 31 31 28 31 31 29
27 28 32 33 33 32 33 33 32 40 38 36 29 34 29 33 34 31 38 29 36 35 32 24 26 30 32 37 36 35 36 37 36 35 33 33 35 34 33 32 31 32 33
25 27 29 30 33 34 34 34 36 36 41 43 38 33 35 33 37 33 31 31 36 31 33 33 33 33 34 36 35 38 41 34 37 36 33 34 35 35 35 33 32 33 33
24 26 27 29 32 32 33 35 36 37 36 38 36 38 30 31 33 38 37 37 35 40 32 31 37 31 33 31 33 32 40 42 40 42 37 36 36 36 35 34 31 32 32
23 25 26 27 29 32 32 33 34 38 36 38 38 39 35 30 26 33 38 37 39 43 41 40 38 38 38 39 33 36 35 38 39 39 38 38 37 36 35 34 33 35 33
22 23 25 27 29 30 31 33 35 35 37 37 39 41 41 36 32 28 32 33 32 35 39 37 36 39 40 39 38 39 32 33 40 39 39 37 37 39 37 34 34 35 41
22 22 23 25 28 31 32 32 35 35 39 38 38 42 44 46 40 34 31 31 33 36 38 39 37 35 35 36 40 37 34 36 38 42 38 37 38 38 38 36 34 32 29
24 23 23 24 25 28 31 32 32 34 35 37 39 39 42 45 46 41 38 33 33 33 37 40 40 43 39 40 42 40 44 43 43 43 42 42 40 38 37 32 29 27 26
23 23 24 24 23 25 27 30 32 33 34 35 37 39 38 40 44 42 44 40 35 35 33 36 36 38 34 38 45 47 43 42 37 40 41 44 41 38 38 33 30 31 26
22 22 23 24 24 25 25 26 28 31 33 34 34 35 38 37 43 40 39 44 43 41 35 35 35 34 29 28 30 41 46 44 36 30 32 38 36 30 27 27 26 29 32
20 20 22 23 23 24 25 25 25 26 29 32 33 33 33 33 37 41 42 41 43 43 41 38 38 30 31 30 25 35 32 32 40 31 26 29 33 38 36 34 34 33 31
25 23 21 22 22 23 24 23 24 24 24 27 30 31 31 32 33 36 38 39 39 39 41 43 33 32 31 31 28 23 21 23 27 31 27 30 33 30 33 34 34 33 32
25 25 24 23 22 23 23 22 23 23 23 23 26 28 29 30 31 33 39 40 40 39 37 37 32 31 31 35 27 27 28 28 27 28 34 35 37 39 39 36 33 31 30
24 26 25 25 23 23 23 23 22 22 21 21 22 24 26 27 29 31 37 42 40 40 36 33 30 30 36 31 28 30 31 29 28 31 34 34 34 34 34 33 32 32 31
Wind_Direction
245 245 246 246 247 247 247 248 249 250 250 252 249 245 243 242 245 248 250 252 252 252 253 254 256 257 256 257 258 256 259 262 265 265 264 262 261 264 266 265 264 264 264
245 246 246 246 247 247 248 249 252 253 253 252 248 244 241 241 243 246 248 249 251 252 253 253 253 252 254 251 254 257 258 256 258 263 266 272 276 272 268 272 275 271 267
237 240 243 245 247 248 247 248 249 249 250 248 246 242 239 238 240 243 245 247 250 251 252 251 250 250 249 252 253 256 258 260 261 261 265 267 269 281 278 276 279 272 266
241 248 251 252 249 247 247 246 246 245 244 245 239 237 237 235 237 239 242 246 249 250 250 251 250 248 251 253 256 258 259 258 260 262 263 266 269 265 265 266 263 272 263
241 245 249 251 244 237 241 241 240 240 239 236 238 237 231 232 236 236 241 245 248 250 252 252 249 251 254 258 260 260 261 257 258 259 260 261 266 269 261 260 265 263 261
239 244 245 242 241 249 242 223 246 242 240 236 228 225 242 234 241 240 242 245 249 251 252 252 252 254 258 264 264 264 271 252 252 252 257 259 257 258 260 258 263 263 269
238 243 241 237 242 243 240 245 245 241 240 235 236 238 229 236 243 244 245 246 250 250 250 252 255 259 263 266 264 251 257 249 251 246 259 264 260 259 251 257 245 256 255
237 247 247 248 237 239 226 233 234 227 235 235 245 240 240 242 243 245 249 251 251 250 248 252 257 260 264 266 257 248 248 249 245 246 252 258 261 251 247 245 249 253 248
239 243 236 232 246 251 237 234 240 238 237 247 242 241 245 249 249 249 245 245 248 250 252 255 256 256 257 258 259 250 250 245 241 241 246 243 252 247 250 250 247 254 263
239 241 240 237 237 236 230 227 238 245 246 240 235 246 239 247 248 244 242 243 249 254 258 256 251 254 254 252 249 250 242 240 243 236 240 253 251 250 257 258 261 263 256
236 237 238 242 245 249 241 250 256 253 244 242 246 240 225 230 240 239 244 246 252 258 262 256 257 258 245 254 250 245 234 235 241 238 247 249 250 249 250 255 247 242 258
237 238 239 240 243 247 247 237 239 232 233 243 243 243 244 242 244 238 248 246 258 257 261 251 244 246 241 242 243 240 239 240 242 240 240 243 240 240 244 245 242 250 256
242 241 241 241 239 242 247 246 250 240 244 240 230 237 241 230 253 240 247 246 246 255 255 246 245 243 238 237 242 233 242 243 240 238 232 235 239 244 246 247 246 244 246
249 246 244 243 241 239 241 245 249 245 237 225 225 227 229 239 231 227 232 227 241 251 248 243 252 241 237 245 242 238 239 243 249 243 236 236 239 243 247 248 246 245 247
253 251 250 248 245 242 242 242 242 246 247 251 250 240 229 229 238 242 244 244 236 249 241 237 249 252 246 248 247 241 236 241 246 245 242 238 241 243 244 243 244 244 246
259 255 252 250 249 247 245 247 244 244 246 248 252 252 252 248 248 246 247 250 249 243 246 251 244 255 248 247 250 246 249 245 245 248 243 243 241 242 244 242 239 240 233
260 259 257 254 252 250 248 244 246 251 245 245 243 240 242 246 246 244 245 247 245 243 248 244 245 248 252 244 252 256 254 245 244 240 240 241 239 239 238 238 237 242 240
267 264 259 259 256 254 252 251 246 244 250 251 247 245 244 244 244 247 249 247 243 242 245 251 256 251 254 245 248 249 248 240 238 236 236 236 237 238 236 236 236 245 247
269 267 264 261 259 257 255 253 253 248 245 245 248 248 244 243 242 246 247 246 237 237 243 243 245 255 254 254 245 250 234 244 242 239 234 237 235 243 237 239 242 236 218
268 268 267 266 263 259 257 255 252 251 249 245 246 247 251 244 238 240 246 246 241 243 249 249 254 254 254 245 244 248 239 243 240 240 237 243 244 241 233 217 211 206 220
269 270 270 270 268 265 260 255 254 251 250 249 247 246 247 252 242 240 241 241 240 241 254 251 246 255 252 249 242 236 239 238 235 236 237 236 234 214 207 206 223 224 223
271 269 268 266 268 271 269 263 256 252 249 246 246 247 246 245 247 245 248 243 243 245 249 249 249 245 254 243 248 238 239 238 215 216 216 209 197 202 212 223 230 227 235
277 272 268 268 264 264 266 267 264 257 254 249 246 248 249 248 246 243 247 248 244 244 244 245 248 253 251 245 242 230 229 217 214 209 203 203 208 209 213 223 233 236 231
280 280 277 271 268 263 262 265 266 264 258 254 250 247 249 252 250 245 240 243 245 245 243 246 245 246 244 247 236 219 224 215 210 214 221 220 228 233 228 226 222 221 221
275 277 279 278 274 272 268 264 264 264 261 256 252 250 250 251 251 248 243 240 240 242 242 240 237 232 237 227 227 224 220 230 236 233 225 224 219 220 219 218 218 219 219
271 272 273 273 273 271 268 266 265 265 266 263 259 254 250 252 252 252 245 242 242 238 234 230 230 225 215 220 223 222 218 225 230 234 233 220 218 219 218 219 218 218 217